| time (UTC) | temp F | wind direction | speed MPH | gust MPH | rain 1hr in | rain 24hr in | rain mn in | humidity % | barometer mb |
| 20260508001828 | 53 | 197 | 0.0 | 0.0 | 0.00 | 0.03 | 0.00 | 99 | 996.0 |
| 20260508001327 | 53 | 197 | 0.0 | 0.0 | 0.00 | 0.03 | 0.00 | 99 | 996.2 |
| 20260508000826 | 53 | 197 | 0.0 | 0.0 | 0.00 | 0.03 | 0.00 | 99 | 996.1 |
| 20260508000327 | 53 | 197 | 0.0 | 0.0 | 0.00 | 0.03 | 0.00 | 99 | 996.1 |
| 20260507235825 | 53 | 197 | 0.0 | 0.0 | 0.00 | 0.03 | 0.00 | 99 | 996.1 |
| 20260507235325 | 53 | 197 | 0.0 | 0.0 | 0.00 | 0.03 | 0.00 | 99 | 996.0 |
| 20260507234824 | 53 | 197 | 0.0 | 0.0 | 0.05 | 0.03 | 0.00 | 99 | 996.2 |
| 20260507234324 | 53 | 197 | 0.0 | 0.0 | 0.05 | 0.03 | 0.00 | 99 | 996.2 |
| 20260507233823 | 53 | 197 | 0.0 | 0.0 | 0.00 | 0.02 | 0.00 | 99 | 996.2 |
| 20260507233323 | 53 | 197 | 0.0 | 0.0 | 0.00 | 0.02 | 0.00 | 99 | 996.1 |
| 20260507232822 | 53 | 197 | 0.0 | 0.0 | 0.00 | 0.02 | 0.00 | 99 | 996.3 |
| 20260507232322 | 53 | 197 | 0.0 | 0.0 | 0.00 | 0.02 | 0.00 | 99 | 996.2 |
| 20260507231821 | 53 | 197 | 0.0 | 0.0 | 0.00 | 0.02 | 0.00 | 99 | 996.1 |
| 20260507231321 | 53 | 197 | 0.0 | 0.0 | 0.07 | 0.02 | 0.00 | 99 | 996.3 |
| 20260507230820 | 53 | 197 | 0.0 | 0.0 | 0.07 | 0.02 | 0.00 | 99 | 996.2 |
| 20260507230320 | 53 | 197 | 0.0 | 0.0 | 0.00 | 0.01 | 0.00 | 99 | 996.1 |
| 20260507225819 | 53 | 197 | 0.0 | 0.0 | 0.00 | 0.01 | 0.00 | 99 | 996.2 |
| 20260507225318 | 53 | 197 | 0.0 | 0.0 | 0.00 | 0.01 | 0.00 | 99 | 995.9 |
| 20260507224818 | 53 | 197 | 0.0 | 0.0 | 0.00 | 0.01 | 0.00 | 99 | 996.0 |
| 20260507224317 | 53 | 197 | 0.0 | 0.0 | 0.00 | 0.01 | 0.00 | 99 | 996.0 |
| 20260507223817 | 53 | 197 | 0.0 | 0.0 | 0.00 | 0.01 | 0.00 | 99 | 996.0 |
| 20260507223316 | 53 | 197 | 0.0 | 0.0 | 0.00 | 0.01 | 0.00 | 99 | 996.0 |
| 20260507222816 | 53 | 197 | 0.0 | 0.0 | 0.05 | 0.01 | 0.00 | 99 | 995.9 |
| 20260507222315 | 53 | 197 | 0.0 | 0.0 | 0.05 | 0.01 | 0.00 | 99 | 995.9 |
| 20260507221814 | 53 | 197 | 0.0 | 0.0 | 0.00 | 0.00 | 0.00 | 99 | 995.9 |
| 20260507221314 | 53 | 197 | 0.0 | 0.0 | 0.00 | 0.00 | 0.00 | 99 | 996.0 |
| 20260507220813 | 53 | 197 | 0.0 | 0.0 | 0.07 | 0.00 | 0.00 | 99 | 996.0 |
| 20260507220313 | 53 | 197 | 0.0 | 0.0 | 0.07 | 0.00 | 0.00 | 99 | 995.8 |
| 20260507215812 | 53 | 197 | 0.0 | 0.0 | 0.00 | 0.20 | 0.00 | 99 | 995.9 |
| 20260507215312 | 53 | 197 | 0.0 | 0.0 | 0.07 | 0.20 | 0.00 | 99 | 995.8 |
| 20260507214811 | 53 | 197 | 0.0 | 0.0 | 0.07 | 0.20 | 0.00 | 99 | 995.8 |
| 20260507214310 | 53 | 197 | 0.0 | 0.0 | 0.05 | 0.19 | 0.00 | 99 | 996.0 |
| 20260507213810 | 53 | 197 | 0.0 | 0.0 | 0.05 | 0.19 | 0.00 | 99 | 996.0 |
| 20260507213309 | 53 | 197 | 0.0 | 0.0 | 0.00 | 0.18 | 0.00 | 99 | 996.0 |
| 20260507212809 | 53 | 197 | 0.0 | 0.0 | 0.00 | 0.18 | 0.00 | 99 | 996.1 |
| 20260507212308 | 53 | 197 | 0.0 | 0.0 | 0.07 | 0.18 | 0.00 | 99 | 996.1 |
| 20260507211808 | 53 | 197 | 0.0 | 0.0 | 0.07 | 0.18 | 0.00 | 99 | 996.0 |
| 20260507211307 | 53 | 197 | 0.0 | 0.0 | 0.00 | 0.17 | 0.00 | 99 | 996.0 |
| 20260507210306 | 53 | 197 | 0.0 | 0.0 | 0.00 | 0.17 | 0.00 | 99 | 996.0 |
| 20260507205805 | 54 | 197 | 0.0 | 0.0 | 0.00 | 0.17 | 0.00 | 99 | 995.8 |
| 20260507205306 | 54 | 197 | 0.0 | 0.0 | 0.00 | 0.17 | 0.00 | 99 | 995.9 |
| 20260507204804 | 54 | 197 | 0.0 | 0.0 | 0.00 | 0.17 | 0.00 | 99 | 995.8 |
| 20260507204304 | 54 | 197 | 0.0 | 0.0 | 0.00 | 0.17 | 0.00 | 99 | 996.0 |
| 20260507203803 | 54 | 197 | 0.0 | 0.0 | 0.05 | 0.17 | 0.00 | 99 | 995.8 |
| 20260507203303 | 54 | 197 | 0.0 | 0.0 | 0.05 | 0.17 | 0.00 | 99 | 995.8 |
| 20260507202802 | 54 | 197 | 0.0 | 0.0 | 0.05 | 0.17 | 0.00 | 99 | 995.8 |
| 20260507202306 | 54 | 197 | 0.0 | 0.0 | 0.00 | 0.16 | 0.00 | 99 | 995.7 |
| 20260507201801 | 54 | 197 | 0.0 | 0.0 | 0.00 | 0.16 | 0.00 | 99 | 995.2 |
| 20260507201301 | 54 | 197 | 0.0 | 0.0 | 0.00 | 0.16 | 0.00 | 99 | 995.4 |
| 20260507200800 | 54 | 197 | 0.0 | 0.0 | 0.00 | 0.16 | 0.00 | 99 | 995.4 |
| 20260507200300 | 54 | 197 | 0.0 | 0.0 | 0.00 | 0.16 | 0.00 | 99 | 995.3 |
| 20260507195758 | 54 | 197 | 0.0 | 0.0 | 0.00 | 0.16 | 0.00 | 99 | 995.2 |
| 20260507195257 | 54 | 197 | 0.0 | 0.0 | 0.07 | 0.16 | 0.00 | 99 | 995.3 |
| 20260507194757 | 54 | 197 | 0.0 | 0.0 | 0.07 | 0.16 | 0.00 | 99 | 995.2 |
| 20260507194256 | 54 | 197 | 0.0 | 0.0 | 0.00 | 0.15 | 0.00 | 99 | 995.3 |
| 20260507193756 | 54 | 197 | 0.0 | 0.0 | 0.05 | 0.15 | 0.00 | 99 | 995.3 |
| 20260507193255 | 54 | 197 | 0.0 | 0.0 | 0.05 | 0.15 | 0.00 | 99 | 995.3 |
| 20260507192754 | 54 | 187 | 0.0 | 0.0 | 0.07 | 0.14 | 0.00 | 99 | 995.5 |
| 20260507192254 | 54 | 114 | 0.0 | 0.0 | 0.07 | 0.14 | 0.00 | 99 | 995.3 |
| 20260507191753 | 54 | 260 | 0.0 | 0.0 | 0.00 | 0.13 | 0.00 | 99 | 995.5 |
| 20260507191253 | 54 | 259 | 0.0 | 0.0 | 0.12 | 0.13 | 0.00 | 99 | 995.6 |
| 20260507190752 | 54 | 259 | 0.0 | 1.0 | 0.12 | 0.13 | 0.00 | 99 | 995.5 |
| 20260507190251 | 54 | 259 | 0.0 | 1.0 | 0.07 | 0.12 | 0.00 | 99 | 995.4 |
| 20260507185751 | 54 | 260 | 1.0 | 1.0 | 0.00 | 0.11 | 0.00 | 99 | 995.3 |
| 20260507185250 | 54 | 259 | 0.0 | 0.0 | 0.00 | 0.11 | 0.00 | 99 | 995.1 |
| 20260507184750 | 54 | 259 | 1.0 | 1.0 | 0.00 | 0.11 | 0.00 | 98 | 995.0 |
| 20260507184249 | 54 | 260 | 0.0 | 0.0 | 0.00 | 0.11 | 0.00 | 98 | 995.1 |
| 20260507183749 | 54 | 260 | 1.0 | 1.0 | 0.00 | 0.11 | 0.00 | 98 | 995.0 |
| 20260507183248 | 54 | 128 | 0.0 | 0.0 | 0.05 | 0.11 | 0.00 | 98 | 995.0 |
| 20260507182747 | 54 | 127 | 0.0 | 0.0 | 0.05 | 0.11 | 0.00 | 98 | 994.8 |
| 20260507182247 | 54 | 211 | 0.0 | 0.0 | 0.00 | 0.10 | 0.00 | 98 | 994.7 |
| 20260507181746 | 54 | 196 | 1.0 | 1.0 | 0.00 | 0.10 | 0.00 | 98 | 994.6 |
| 20260507181245 | 54 | 131 | 1.0 | 1.0 | 0.00 | 0.10 | 0.00 | 98 | 994.3 |
| 20260507180745 | 54 | 225 | 0.0 | 0.0 | 0.00 | 0.10 | 0.00 | 97 | 994.5 |
| 20260507180244 | 54 | 146 | 0.0 | 0.0 | 0.00 | 0.10 | 0.00 | 97 | 994.4 |
| 20260507175744 | 54 | 147 | 0.0 | 0.0 | 0.00 | 0.10 | 0.00 | 97 | 994.3 |
| 20260507175243 | 55 | 123 | 0.0 | 1.0 | 0.00 | 0.10 | 0.00 | 97 | 994.3 |
| 20260507174742 | 55 | 131 | 0.0 | 0.0 | 0.00 | 0.10 | 0.00 | 97 | 994.3 |
| 20260507174242 | 55 | 133 | 1.0 | 2.0 | 0.00 | 0.10 | 0.00 | 97 | 994.4 |
| 20260507173741 | 55 | 119 | 1.0 | 2.0 | 0.00 | 0.10 | 0.00 | 97 | 994.3 |
| 20260507173241 | 55 | 105 | 0.0 | 0.0 | 0.00 | 0.10 | 0.00 | 97 | 993.9 |
| 20260507172740 | 56 | 103 | 1.0 | 2.0 | 0.00 | 0.10 | 0.00 | 97 | 994.1 |
| 20260507172240 | 56 | 125 | 0.0 | 1.0 | 0.00 | 0.10 | 0.00 | 96 | 994.1 |
| 20260507171739 | 56 | 104 | 1.0 | 2.0 | 0.00 | 0.10 | 0.00 | 96 | 994.1 |
| 20260507171238 | 56 | 121 | 2.0 | 3.0 | 0.07 | 0.10 | 0.00 | 95 | 994.2 |
| 20260507170738 | 56 | 130 | 0.0 | 0.0 | 0.19 | 0.10 | 0.00 | 94 | 994.2 |
| 20260507170237 | 56 | 109 | 1.0 | 1.0 | 0.31 | 0.10 | 0.00 | 93 | 994.3 |
| 20260507165737 | 57 | 89 | 0.0 | 1.0 | 0.31 | 0.07 | 0.00 | 93 | 994.5 |
| 20260507165236 | 57 | 153 | 1.0 | 2.0 | 0.19 | 0.05 | 0.00 | 91 | 994.3 |
| 20260507164736 | 57 | 119 | 2.0 | 2.0 | 0.00 | 0.02 | 0.00 | 90 | 994.3 |
| 20260507164235 | 58 | 102 | 4.0 | 6.0 | 0.00 | 0.02 | 0.00 | 89 | 994.1 |
| 20260507163735 | 58 | 91 | 2.0 | 3.0 | 0.00 | 0.02 | 0.00 | 86 | 994.1 |
| 20260507163234 | 58 | 121 | 5.0 | 7.0 | 0.00 | 0.02 | 0.00 | 84 | 994.2 |
| 20260507162733 | 59 | 131 | 1.0 | 4.0 | 0.00 | 0.02 | 0.00 | 83 | 994.1 |
| 20260507162233 | 60 | 117 | 3.0 | 4.0 | 0.00 | 0.02 | 0.00 | 80 | 994.1 |
| 20260507161732 | 61 | 77 | 2.0 | 3.0 | 0.00 | 0.02 | 0.00 | 77 | 993.9 |
| 20260507161232 | 63 | 79 | 1.0 | 3.0 | 0.00 | 0.02 | 0.00 | 74 | 993.7 |
| 20260507160731 | 65 | 110 | 1.0 | 2.0 | 0.00 | 0.02 | 0.00 | 69 | 993.3 |
| 20260507160230 | 66 | 109 | 3.0 | 4.0 | 0.00 | 0.02 | 0.00 | 65 | 993.3 |
| 20260507155730 | 66 | 228 | 3.0 | 3.0 | 0.00 | 0.02 | 0.00 | 65 | 993.3 |
| 20260507155229 | 66 | 225 | 2.0 | 2.0 | 0.00 | 0.02 | 0.00 | 66 | 993.1 |
| 20260507154728 | 67 | 210 | 3.0 | 3.0 | 0.00 | 0.02 | 0.00 | 65 | 993.2 |
| 20260507154228 | 67 | 228 | 2.0 | 3.0 | 0.00 | 0.02 | 0.00 | 65 | 993.1 |
| 20260507153727 | 67 | 229 | 2.0 | 3.0 | 0.00 | 0.02 | 0.00 | 65 | 993.3 |
| 20260507153226 | 67 | 230 | 7.0 | 8.0 | 0.00 | 0.02 | 0.00 | 64 | 993.1 |
| 20260507152726 | 67 | 209 | 1.0 | 2.0 | 0.00 | 0.02 | 0.00 | 63 | 993.0 |
| 20260507151725 | 68 | 83 | 2.0 | 3.0 | 0.00 | 0.02 | 0.00 | 64 | 992.8 |
| 20260507151224 | 68 | 214 | 1.0 | 2.0 | 0.00 | 0.02 | 0.00 | 64 | 993.0 |
| 20260507150724 | 67 | 219 | 3.0 | 4.0 | 0.00 | 0.02 | 0.00 | 65 | 993.0 |
| 20260507150223 | 68 | 111 | 1.0 | 2.0 | 0.00 | 0.02 | 0.00 | 64 | 993.0 |
| 20260507145722 | 69 | 196 | 1.0 | 2.0 | 0.00 | 0.02 | 0.00 | 63 | 992.9 |
| 20260507145222 | 70 | 235 | 3.0 | 5.0 | 0.00 | 0.02 | 0.00 | 62 | 993.0 |
| 20260507144721 | 70 | 222 | 4.0 | 5.0 | 0.00 | 0.02 | 0.00 | 61 | 992.8 |
| 20260507144221 | 71 | 168 | 0.0 | 1.0 | 0.00 | 0.02 | 0.00 | 59 | 992.9 |
| 20260507143720 | 70 | 184 | 1.0 | 2.0 | 0.00 | 0.02 | 0.00 | 60 | 993.0 |
| 20260507143220 | 69 | 229 | 6.0 | 11.0 | 0.00 | 0.02 | 0.00 | 62 | 993.1 |
| 20260507142719 | 68 | 246 | 1.0 | 3.0 | 0.00 | 0.02 | 0.00 | 64 | 993.0 |
| 20260507142218 | 68 | 235 | 3.0 | 4.0 | 0.00 | 0.02 | 0.00 | 63 | 993.0 |
| 20260507141718 | 69 | 138 | 0.0 | 1.0 | 0.00 | 0.02 | 0.00 | 63 | 993.2 |
| 20260507141217 | 68 | 165 | 5.0 | 6.0 | 0.00 | 0.02 | 0.00 | 63 | 993.0 |
| 20260507140716 | 69 | 233 | 1.0 | 2.0 | 0.00 | 0.02 | 0.00 | 62 | 993.1 |
| 20260507140216 | 69 | 192 | 2.0 | 3.0 | 0.00 | 0.02 | 0.00 | 62 | 993.1 |
| 20260507135715 | 70 | 226 | 2.0 | 4.0 | 0.00 | 0.02 | 0.00 | 60 | 993.0 |
| 20260507135215 | 69 | 234 | 2.0 | 2.0 | 0.00 | 0.02 | 0.00 | 60 | 993.2 |
| 20260507134714 | 68 | 228 | 2.0 | 3.0 | 0.00 | 0.02 | 0.00 | 61 | 993.2 |
| 20260507134214 | 68 | 245 | 3.0 | 4.0 | 0.00 | 0.02 | 0.00 | 62 | 993.2 |
| 20260507133713 | 67 | 237 | 3.0 | 4.0 | 0.00 | 0.02 | 0.00 | 62 | 993.2 |
| 20260507133212 | 67 | 176 | 0.0 | 0.0 | 0.00 | 0.02 | 0.00 | 65 | 993.3 |
| 20260507132712 | 67 | 114 | 1.0 | 1.0 | 0.00 | 0.02 | 0.00 | 64 | 993.2 |
| 20260507132211 | 67 | 166 | 0.0 | 0.0 | 0.00 | 0.02 | 0.00 | 63 | 993.2 |
| 20260507131711 | 67 | 204 | 5.0 | 8.0 | 0.00 | 0.02 | 0.00 | 63 | 992.9 |
| 20260507131210 | 67 | 156 | 2.0 | 3.0 | 0.00 | 0.02 | 0.00 | 62 | 993.3 |
| 20260507130709 | 67 | 227 | 7.0 | 8.0 | 0.00 | 0.02 | 0.00 | 63 | 993.0 |
| 20260507130209 | 67 | 228 | 3.0 | 4.0 | 0.00 | 0.02 | 0.00 | 63 | 993.2 |
| 20260507125708 | 67 | 205 | 3.0 | 4.0 | 0.00 | 0.02 | 0.00 | 63 | 993.1 |
| 20260507125207 | 68 | 214 | 2.0 | 3.0 | 0.00 | 0.02 | 0.00 | 62 | 993.1 |
| 20260507124206 | 69 | 234 | 4.0 | 5.0 | 0.00 | 0.02 | 0.00 | 61 | 992.8 |
| 20260507123706 | 69 | 237 | 7.0 | 11.0 | 0.00 | 0.02 | 0.00 | 60 | 992.9 |
| 20260507123205 | 70 | 229 | 2.0 | 2.0 | 0.00 | 0.02 | 0.00 | 60 | 993.0 |
| 20260507122705 | 70 | 234 | 2.0 | 3.0 | 0.00 | 0.02 | 0.00 | 57 | 993.0 |
| 20260507122204 | 69 | 208 | 4.0 | 6.0 | 0.00 | 0.02 | 0.00 | 57 | 992.9 |
| 20260507121703 | 69 | 213 | 3.0 | 4.0 | 0.00 | 0.02 | 0.00 | 58 | 993.3 |
| 20260507121203 | 69 | 189 | 2.0 | 4.0 | 0.00 | 0.02 | 0.00 | 56 | 993.2 |
| 20260507120702 | 70 | 226 | 4.0 | 6.0 | 0.00 | 0.02 | 0.00 | 55 | 993.2 |
| 20260507120202 | 71 | 230 | 1.0 | 2.0 | 0.00 | 0.02 | 0.00 | 54 | 993.1 |
| 20260507115701 | 69 | 171 | 2.0 | 2.0 | 0.00 | 0.02 | 0.00 | 56 | 993.2 |
| 20260507115200 | 69 | 238 | 4.0 | 5.0 | 0.00 | 0.02 | 0.00 | 57 | 993.1 |
| 20260507114700 | 69 | 246 | 5.0 | 6.0 | 0.00 | 0.02 | 0.00 | 57 | 993.1 |
| 20260507114159 | 70 | 224 | 4.0 | 6.0 | 0.00 | 0.02 | 0.00 | 58 | 993.2 |
| 20260507113659 | 69 | 201 | 4.0 | 6.0 | 0.00 | 0.02 | 0.00 | 59 | 993.1 |
| 20260507113158 | 69 | 235 | 8.0 | 10.0 | 0.00 | 0.02 | 0.00 | 59 | 993.2 |
| 20260507112658 | 70 | 230 | 4.0 | 6.0 | 0.00 | 0.02 | 0.00 | 58 | 993.1 |
| 20260507112157 | 70 | 221 | 2.0 | 3.0 | 0.00 | 0.02 | 0.00 | 58 | 993.1 |
| 20260507111657 | 70 | 221 | 2.0 | 3.0 | 0.00 | 0.02 | 0.00 | 58 | 993.1 |
| 20260507111156 | 70 | 140 | 2.0 | 4.0 | 0.00 | 0.02 | 0.00 | 59 | 992.9 |
| 20260507110655 | 70 | 140 | 2.0 | 4.0 | 0.00 | 0.02 | 0.00 | 59 | 992.9 |
| 20260507110155 | 69 | 89 | 1.0 | 1.0 | 0.00 | 0.02 | 0.00 | 60 | 993.0 |
| 20260507105654 | 70 | 233 | 1.0 | 2.0 | 0.00 | 0.02 | 0.00 | 59 | 993.0 |
| 20260507105154 | 71 | 245 | 2.0 | 3.0 | 0.00 | 0.02 | 0.00 | 58 | 993.1 |
| 20260507104653 | 70 | 257 | 4.0 | 5.0 | 0.00 | 0.02 | 0.00 | 59 | 992.6 |
| 20260507104152 | 70 | 237 | 7.0 | 9.0 | 0.00 | 0.02 | 0.00 | 59 | 993.0 |
| 20260507103652 | 70 | 203 | 4.0 | 5.0 | 0.00 | 0.02 | 0.00 | 59 | 992.8 |
| 20260507103151 | 70 | 130 | 6.0 | 8.0 | 0.00 | 0.02 | 0.00 | 59 | 992.8 |
| 20260507102653 | 71 | 252 | 2.0 | 3.0 | 0.00 | 0.02 | 0.00 | 59 | 993.0 |
| 20260507102150 | 71 | 207 | 2.0 | 2.0 | 0.00 | 0.02 | 0.00 | 58 | 992.8 |
| 20260507101649 | 71 | 214 | 1.0 | 2.0 | 0.00 | 0.02 | 0.00 | 58 | 992.8 |
| 20260507101149 | 71 | 144 | 0.0 | 1.0 | 0.00 | 0.02 | 0.00 | 57 | 992.7 |
| 20260507100648 | 70 | 217 | 3.0 | 3.0 | 0.00 | 0.02 | 0.00 | 58 | 992.8 |
| 20260507100148 | 71 | 121 | 1.0 | 2.0 | 0.00 | 0.02 | 0.00 | 58 | 993.0 |
| 20260507095645 | 71 | 135 | 0.0 | 0.0 | 0.00 | 0.02 | 0.00 | 59 | 993.0 |
| 20260507095144 | 70 | 134 | 2.0 | 3.0 | 0.00 | 0.02 | 0.00 | 58 | 992.8 |
| 20260507094644 | 69 | 223 | 1.0 | 2.0 | 0.00 | 0.02 | 0.00 | 60 | 993.0 |
| 20260507094143 | 69 | 235 | 2.0 | 5.0 | 0.00 | 0.02 | 0.00 | 60 | 992.9 |
| 20260507093642 | 69 | 240 | 3.0 | 5.0 | 0.00 | 0.02 | 0.00 | 60 | 992.6 |
| 20260507093142 | 71 | 212 | 5.0 | 9.0 | 0.00 | 0.02 | 0.00 | 57 | 992.9 |
| 20260507092641 | 71 | 230 | 2.0 | 3.0 | 0.00 | 0.02 | 0.00 | 58 | 992.7 |
| 20260507092141 | 70 | 168 | 2.0 | 2.0 | 0.00 | 0.02 | 0.00 | 58 | 992.6 |
| 20260507091640 | 70 | 107 | 3.0 | 5.0 | 0.00 | 0.02 | 0.00 | 59 | 992.8 |
| 20260507091140 | 70 | 70 | 3.0 | 3.0 | 0.00 | 0.02 | 0.00 | 58 | 992.5 |
| 20260507090639 | 70 | 123 | 1.0 | 1.0 | 0.00 | 0.02 | 0.00 | 60 | 992.6 |
| 20260507090138 | 70 | 266 | 3.0 | 3.0 | 0.00 | 0.02 | 0.00 | 60 | 992.5 |
| 20260507085638 | 70 | 228 | 3.0 | 4.0 | 0.00 | 0.02 | 0.00 | 60 | 992.6 |
| 20260507085137 | 69 | 99 | 0.0 | 1.0 | 0.00 | 0.02 | 0.00 | 63 | 992.5 |
| 20260507084637 | 68 | 189 | 1.0 | 2.0 | 0.00 | 0.02 | 0.00 | 63 | 992.5 |
| 20260507084136 | 69 | 257 | 3.0 | 5.0 | 0.00 | 0.02 | 0.00 | 61 | 992.5 |
| 20260507083635 | 69 | 128 | 2.0 | 3.0 | 0.00 | 0.02 | 0.00 | 62 | 992.5 |
| 20260507083135 | 67 | 175 | 2.0 | 4.0 | 0.00 | 0.02 | 0.00 | 65 | 992.4 |
| 20260507082634 | 66 | 204 | 1.0 | 1.0 | 0.00 | 0.02 | 0.00 | 66 | 992.4 |
| 20260507082134 | 65 | 163 | 2.0 | 3.0 | 0.00 | 0.02 | 0.00 | 67 | 992.4 |
| 20260507081633 | 66 | 195 | 2.0 | 2.0 | 0.00 | 0.02 | 0.00 | 66 | 992.4 |
| 20260507081133 | 67 | 244 | 2.0 | 4.0 | 0.00 | 0.02 | 0.00 | 64 | 992.3 |
| 20260507080626 | 67 | 221 | 3.0 | 5.0 | 0.00 | 0.02 | 0.00 | 64 | 992.3 |
| 20260507080125 | 65 | 55 | 1.0 | 2.0 | 0.00 | 0.02 | 0.00 | 68 | 992.5 |
| 20260507075625 | 65 | 118 | 1.0 | 2.0 | 0.00 | 0.02 | 0.00 | 67 | 992.3 |
| 20260507075124 | 65 | 219 | 2.0 | 3.0 | 0.00 | 0.02 | 0.00 | 67 | 992.3 |
| 20260507074624 | 64 | 217 | 1.0 | 1.0 | 0.00 | 0.02 | 0.00 | 68 | 992.3 |
| 20260507074123 | 65 | 241 | 3.0 | 4.0 | 0.00 | 0.02 | 0.00 | 68 | 992.4 |
| 20260507073622 | 64 | 209 | 2.0 | 3.0 | 0.00 | 0.02 | 0.00 | 70 | 992.5 |
| 20260507073122 | 64 | 213 | 5.0 | 8.0 | 0.00 | 0.02 | 0.00 | 70 | 992.5 |
| 20260507072621 | 64 | 201 | 3.0 | 4.0 | 0.00 | 0.02 | 0.00 | 71 | 992.4 |
| 20260507072121 | 64 | 226 | 2.0 | 3.0 | 0.00 | 0.02 | 0.00 | 71 | 992.3 |
| 20260507071620 | 64 | 164 | 1.0 | 2.0 | 0.00 | 0.02 | 0.00 | 71 | 992.3 |
| 20260507071120 | 63 | 222 | 2.0 | 2.0 | 0.00 | 0.02 | 0.00 | 72 | 992.4 |
| 20260507070619 | 63 | 217 | 0.0 | 0.0 | 0.00 | 0.02 | 0.00 | 73 | 992.3 |
| 20260507070119 | 62 | 228 | 1.0 | 2.0 | 0.00 | 0.02 | 0.00 | 73 | 992.5 |
| 20260507065618 | 62 | 211 | 2.0 | 2.0 | 0.00 | 0.02 | 0.00 | 74 | 992.2 |
| 20260507065118 | 61 | 228 | 1.0 | 2.0 | 0.00 | 0.02 | 0.00 | 75 | 992.3 |
| 20260507064617 | 61 | 209 | 5.0 | 6.0 | 0.00 | 0.02 | 0.00 | 75 | 992.2 |
| 20260507064116 | 61 | 230 | 2.0 | 4.0 | 0.00 | 0.02 | 0.00 | 75 | 992.0 |
| 20260507063616 | 60 | 237 | 3.0 | 4.0 | 0.00 | 0.02 | 0.00 | 76 | 992.3 |
| 20260507063115 | 60 | 237 | 3.0 | 5.0 | 0.00 | 0.02 | 0.00 | 77 | 992.1 |
| 20260507062615 | 60 | 149 | 2.0 | 3.0 | 0.00 | 0.02 | 0.00 | 77 | 992.2 |
| 20260507062114 | 60 | 249 | 4.0 | 5.0 | 0.00 | 0.02 | 0.00 | 77 | 992.3 |
| 20260507061613 | 60 | 226 | 4.0 | 6.0 | 0.00 | 0.02 | 0.00 | 77 | 992.2 |
| 20260507061113 | 59 | 232 | 2.0 | 3.0 | 0.00 | 0.02 | 0.00 | 79 | 992.1 |
| 20260507060613 | 59 | 224 | 3.0 | 5.0 | 0.00 | 0.02 | 0.00 | 79 | 992.2 |
| 20260507060112 | 59 | 262 | 2.0 | 2.0 | 0.00 | 0.02 | 0.00 | 80 | 992.1 |
| 20260507055611 | 59 | 220 | 1.0 | 2.0 | 0.00 | 0.02 | 0.00 | 80 | 992.1 |
| 20260507055111 | 59 | 241 | 3.0 | 4.0 | 0.00 | 0.02 | 0.00 | 79 | 992.1 |
| 20260507054610 | 58 | 216 | 1.0 | 2.0 | 0.00 | 0.02 | 0.00 | 80 | 992.1 |
| 20260507054110 | 58 | 245 | 4.0 | 4.0 | 0.00 | 0.02 | 0.00 | 80 | 992.0 |
| 20260507053609 | 58 | 234 | 3.0 | 4.0 | 0.00 | 0.02 | 0.00 | 81 | 992.3 |
| 20260507053109 | 58 | 232 | 2.0 | 3.0 | 0.00 | 0.02 | 0.00 | 83 | 992.2 |
| 20260507052608 | 57 | 207 | 1.0 | 1.0 | 0.00 | 0.02 | 0.00 | 83 | 991.9 |
| 20260507052108 | 57 | 241 | 1.0 | 2.0 | 0.00 | 0.02 | 0.00 | 83 | 991.8 |
| 20260507051607 | 57 | 239 | 1.0 | 2.0 | 0.00 | 0.02 | 0.00 | 84 | 991.9 |
| 20260507051107 | 57 | 232 | 1.0 | 3.0 | 0.00 | 0.02 | 0.00 | 84 | 991.8 |
| 20260507050606 | 56 | 223 | 4.0 | 5.0 | 0.00 | 0.02 | 0.00 | 86 | 991.7 |
| 20260507050105 | 56 | 234 | 4.0 | 5.0 | 0.00 | 0.02 | 0.00 | 86 | 991.8 |
| 20260507045605 | 56 | 245 | 3.0 | 4.0 | 0.00 | 0.02 | 0.00 | 86 | 991.6 |
| 20260507045105 | 56 | 213 | 1.0 | 2.0 | 0.00 | 0.02 | 0.00 | 87 | 991.7 |
| 20260507044604 | 56 | 187 | 4.0 | 4.0 | 0.00 | 0.02 | 0.00 | 86 | 992.0 |
| 20260507044103 | 56 | 201 | 1.0 | 1.0 | 0.00 | 0.02 | 0.00 | 87 | 991.9 |
| 20260507043603 | 56 | 219 | 2.0 | 2.0 | 0.00 | 0.02 | 0.00 | 87 | 991.9 |
| 20260507043102 | 56 | 207 | 2.0 | 3.0 | 0.00 | 0.02 | 0.00 | 87 | 991.7 |
| 20260507042602 | 56 | 203 | 2.0 | 4.0 | 0.00 | 0.02 | 0.00 | 87 | 991.9 |
| 20260507042101 | 56 | 223 | 2.0 | 2.0 | 0.05 | 0.02 | 0.00 | 87 | 991.7 |
| 20260507041601 | 56 | 228 | 3.0 | 3.0 | 0.05 | 0.02 | 0.00 | 84 | 991.6 |
| 20260507041100 | 56 | 182 | 2.0 | 3.0 | 0.12 | 0.02 | 0.00 | 84 | 991.8 |
| 20260507040600 | 57 | 233 | 2.0 | 3.0 | 0.07 | 0.01 | 0.00 | 83 | 991.9 |
| 20260507040059 | 57 | 226 | 0.0 | 1.0 | 0.00 | 0.00 | 0.00 | 80 | 991.8 |
| 20260507035558 | 58 | 236 | 4.0 | 4.0 | 0.00 | 0.00 | 0.00 | 76 | 991.6 |
| 20260507035058 | 58 | 131 | 3.0 | 5.0 | 0.00 | 0.00 | 0.00 | 74 | 991.4 |
| 20260507034558 | 58 | 231 | 3.0 | 4.0 | 0.00 | 0.00 | 0.00 | 73 | 991.3 |
| 20260507034057 | 58 | 224 | 1.0 | 2.0 | 0.00 | 0.00 | 0.00 | 73 | 991.4 |
| 20260507033556 | 59 | 237 | 1.0 | 2.0 | 0.00 | 0.00 | 0.00 | 72 | 991.3 |
| 20260507033056 | 59 | 221 | 2.0 | 3.0 | 0.00 | 0.00 | 0.00 | 72 | 991.4 |
| 20260507032555 | 59 | 230 | 3.0 | 3.0 | 0.00 | 0.00 | 0.00 | 72 | 991.2 |
| 20260507032055 | 59 | 201 | 0.0 | 0.0 | 0.00 | 0.00 | 0.00 | 72 | 991.4 |
| 20260507031554 | 59 | 212 | 1.0 | 2.0 | 0.00 | 0.00 | 0.00 | 71 | 991.3 |
| 20260507031053 | 59 | 234 | 4.0 | 5.0 | 0.00 | 0.00 | 0.00 | 71 | 991.2 |
| 20260507030553 | 59 | 201 | 2.0 | 3.0 | 0.00 | 0.00 | 0.00 | 71 | 991.2 |
| 20260507030053 | 59 | 235 | 3.0 | 3.0 | 0.00 | 0.00 | 0.00 | 71 | 991.3 |
| 20260507025552 | 59 | 216 | 3.0 | 4.0 | 0.00 | 0.00 | 0.00 | 71 | 991.4 |
| 20260507025051 | 59 | 227 | 3.0 | 3.0 | 0.00 | 0.00 | 0.00 | 70 | 991.4 |
| 20260507024551 | 59 | 251 | 3.0 | 4.0 | 0.00 | 0.00 | 0.00 | 70 | 991.5 |
| 20260507024051 | 59 | 240 | 2.0 | 3.0 | 0.00 | 0.00 | 0.00 | 70 | 991.2 |
| 20260507023550 | 59 | 241 | 4.0 | 5.0 | 0.00 | 0.00 | 0.00 | 70 | 991.3 |
| 20260507023049 | 59 | 226 | 3.0 | 3.0 | 0.00 | 0.00 | 0.00 | 70 | 991.3 |
| 20260507022549 | 59 | 224 | 3.0 | 4.0 | 0.00 | 0.00 | 0.00 | 70 | 991.2 |
| 20260507022048 | 59 | 226 | 1.0 | 1.0 | 0.00 | 0.00 | 0.00 | 70 | 991.1 |
| 20260507021548 | 59 | 224 | 0.0 | 1.0 | 0.00 | 0.00 | 0.00 | 70 | 991.2 |
| 20260507021047 | 59 | 172 | 0.0 | 1.0 | 0.00 | 0.00 | 0.00 | 70 | 991.1 |
| 20260507020547 | 59 | 210 | 0.0 | 0.0 | 0.00 | 0.00 | 0.00 | 71 | 991.2 |
| 20260507020046 | 59 | 203 | 1.0 | 1.0 | 0.00 | 0.00 | 0.00 | 71 | 991.3 |
| 20260507015546 | 60 | 231 | 1.0 | 1.0 | 0.00 | 0.00 | 0.00 | 70 | 991.1 |
| 20260507015045 | 60 | 239 | 2.0 | 4.0 | 0.00 | 0.00 | 0.00 | 69 | 991.1 |
| 20260507014545 | 60 | 236 | 6.0 | 7.0 | 0.00 | 0.00 | 0.00 | 69 | 991.0 |
| 20260507014044 | 60 | 229 | 2.0 | 3.0 | 0.00 | 0.00 | 0.00 | 68 | 990.9 |
| 20260507013544 | 60 | 203 | 3.0 | 3.0 | 0.00 | 0.00 | 0.00 | 68 | 990.9 |
| 20260507013043 | 59 | 222 | 2.0 | 3.0 | 0.00 | 0.00 | 0.00 | 69 | 991.1 |
| 20260507012543 | 58 | 225 | 3.0 | 5.0 | 0.00 | 0.00 | 0.00 | 71 | 991.0 |
| 20260507012042 | 57 | 229 | 0.0 | 0.0 | 0.00 | 0.00 | 0.00 | 75 | 990.9 |
| 20260507011542 | 58 | 229 | 0.0 | 0.0 | 0.00 | 0.00 | 0.00 | 73 | 991.0 |
| 20260507011042 | 59 | 229 | 0.0 | 0.0 | 0.00 | 0.00 | 0.00 | 71 | 990.9 |
| 20260507010541 | 60 | 229 | 0.0 | 0.0 | 0.00 | 0.00 | 0.00 | 69 | 991.0 |
| 20260507010040 | 60 | 231 | 1.0 | 2.0 | 0.00 | 0.00 | 0.00 | 68 | 990.9 |
| 20260507005540 | 60 | 240 | 2.0 | 3.0 | 0.00 | 0.00 | 0.00 | 68 | 991.0 |
| 20260507005039 | 59 | 226 | 0.0 | 0.0 | 0.00 | 0.00 | 0.00 | 69 | 990.8 |
| 20260507004038 | 60 | 234 | 1.0 | 2.0 | 0.00 | 0.00 | 0.00 | 67 | 990.9 |
| 20260507003537 | 60 | 196 | 0.0 | 0.0 | 0.00 | 0.00 | 0.00 | 68 | 991.0 |
| 20260507003037 | 61 | 267 | 2.0 | 2.0 | 0.00 | 0.00 | 0.00 | 66 | 991.0 |
| 20260507002536 | 61 | 231 | 2.0 | 2.0 | 0.00 | 0.00 | 0.00 | 65 | 991.0 |